QPF
0.07 0.05 0.04 0.03 0.04 0.07 0.09 0.10 0.14 0.15 0.11 0.10 0.11 0.11 0.10 0.09 0.07 0.09 0.06 0.05 0.03 0.03 0.04 0.05 0.07 0.06 0.05 0.04 0.03 0.03 0.03 0.03 0.02 0.02 0.02 0.02 0.03 0.03 0.05 0.08 0.09 0.07 0.07
0.06 0.05 0.03 0.03 0.04 0.04 0.09 0.13 0.10 0.08 0.09 0.12 0.09 0.08 0.07 0.08 0.07 0.07 0.05 0.05 0.04 0.04 0.06 0.08 0.06 0.06 0.05 0.03 0.03 0.04 0.04 0.05 0.02 0.03 0.05 0.06 0.06 0.07 0.07 0.06 0.08 0.08 0.06
0.04 0.05 0.04 0.04 0.04 0.03 0.04 0.05 0.05 0.05 0.06 0.06 0.06 0.07 0.05 0.06 0.07 0.06 0.04 0.04 0.04 0.04 0.05 0.08 0.07 0.07 0.10 0.09 0.04 0.04 0.04 0.03 0.02 0.05 0.11 0.14 0.09 0.07 0.08 0.08 0.08 0.09 0.08
0.03 0.04 0.04 0.05 0.05 0.05 0.05 0.04 0.03 0.03 0.05 0.04 0.05 0.06 0.05 0.05 0.05 0.04 0.04 0.04 0.05 0.05 0.05 0.06 0.06 0.12 0.18 0.10 0.06 0.04 0.05 0.04 0.05 0.09 0.11 0.13 0.10 0.06 0.07 0.07 0.07 0.06 0.06
0.02 0.03 0.03 0.05 0.06 0.04 0.03 0.03 0.02 0.02 0.03 0.05 0.04 0.04 0.03 0.03 0.03 0.03 0.05 0.06 0.06 0.04 0.06 0.06 0.05 0.09 0.17 0.16 0.08 0.05 0.05 0.03 0.06 0.09 0.07 0.08 0.08 0.06 0.06 0.07 0.08 0.07 0.04
0.03 0.03 0.02 0.03 0.03 0.03 0.02 0.03 0.02 0.02 0.04 0.05 0.05 0.05 0.03 0.03 0.02 0.04 0.06 0.07 0.06 0.03 0.04 0.05 0.04 0.03 0.05 0.06 0.05 0.05 0.04 0.04 0.06 0.07 0.08 0.09 0.08 0.05 0.03 0.04 0.05 0.04 0.04
0.05 0.02 0.01 0.03 0.03 0.03 0.03 0.02 0.01 0.01 0.04 0.05 0.05 0.06 0.05 0.04 0.05 0.06 0.06 0.05 0.05 0.04 0.04 0.04 0.04 0.04 0.04 0.04 0.04 0.05 0.05 0.05 0.06 0.07 0.08 0.10 0.06 0.03 0.03 0.03 0.04 0.06 0.07
0.05 0.03 0.01 0.03 0.03 0.03 0.03 0.02 0.01 0.01 0.02 0.04 0.05 0.06 0.07 0.09 0.09 0.06 0.03 0.02 0.02 0.02 0.03 0.03 0.04 0.03 0.04 0.04 0.04 0.05 0.07 0.07 0.07 0.08 0.07 0.08 0.06 0.04 0.04 0.04 0.05 0.07 0.07
0.04 0.03 0.02 0.01 0.01 0.02 0.02 0.02 0.01 0.01 0.02 0.03 0.04 0.04 0.05 0.05 0.04 0.03 0.02 0.02 0.02 0.02 0.03 0.03 0.04 0.04 0.03 0.03 0.05 0.06 0.05 0.04 0.06 0.09 0.08 0.08 0.08 0.08 0.08 0.07 0.07 0.07 0.06
0.02 0.03 0.02 0.01 0.02 0.02 0.01 0.02 0.02 0.02 0.03 0.04 0.05 0.04 0.03 0.02 0.02 0.03 0.03 0.04 0.03 0.03 0.03 0.03 0.03 0.03 0.02 0.02 0.04 0.03 0.03 0.04 0.04 0.07 0.11 0.13 0.13 0.12 0.10 0.09 0.07 0.06 0.06
0.01 0.02 0.01 0.01 0.02 0.02 0.02 0.01 0.02 0.02 0.03 0.03 0.03 0.04 0.04 0.04 0.02 0.02 0.02 0.03 0.04 0.03 0.03 0.03 0.02 0.02 0.02 0.02 0.02 0.01 0.02 0.03 0.03 0.04 0.06 0.09 0.10 0.10 0.08 0.05 0.06 0.06 0.06
0.01 0.01 0.01 0.00 0.01 0.02 0.02 0.01 0.02 0.01 0.01 0.01 0.01 0.01 0.01 0.02 0.02 0.01 0.01 0.02 0.02 0.02 0.01 0.02 0.02 0.03 0.03 0.02 0.01 0.01 0.02 0.02 0.03 0.03 0.04 0.06 0.07 0.07 0.06 0.05 0.04 0.04 0.04
0.01 0.00 0.01 0.01 0.02 0.03 0.02 0.01 0.01 0.01 0.01 0.01 0.01 0.01 0.02 0.01 0.01 0.01 0.01 0.02 0.01 0.01 0.01 0.01 0.02 0.02 0.01 0.01 0.01 0.01 0.03 0.03 0.03 0.03 0.05 0.06 0.06 0.05 0.06 0.05 0.03 0.04 0.04
0.01 0.02 0.02 0.03 0.03 0.02 0.01 0.00 0.00 0.01 0.00 0.01 0.01 0.01 0.01 0.01 0.01 0.01 0.02 0.01 0.02 0.02 0.02 0.02 0.02 0.01 0.01 0.01 0.01 0.03 0.04 0.04 0.04 0.06 0.06 0.06 0.07 0.06 0.06 0.08 0.05 0.03 0.03
0.03 0.03 0.02 0.04 0.05 0.02 0.01 0.00 0.00 0.00 0.00 0.00 0.01 0.01 0.00 0.01 0.01 0.01 0.02 0.02 0.02 0.02 0.03 0.02 0.02 0.02 0.02 0.02 0.03 0.03 0.04 0.04 0.05 0.05 0.04 0.04 0.05 0.06 0.06 0.07 0.05 0.05 0.05
0.04 0.03 0.02 0.04 0.04 0.01 0.01 0.00 0.00 0.00 0.00 0.00 0.01 0.01 0.00 0.00 0.01 0.01 0.02 0.03 0.03 0.02 0.02 0.01 0.02 0.02 0.02 0.03 0.03 0.03 0.03 0.03 0.03 0.03 0.03 0.02 0.02 0.04 0.05 0.06 0.04 0.04 0.05
0.02 0.03 0.04 0.03 0.03 0.03 0.01 0.00 0.00 0.00 0.00 0.00 0.01 0.01 0.00 0.01 0.02 0.03 0.05 0.05 0.03 0.02 0.01 0.01 0.01 0.02 0.03 0.03 0.04 0.04 0.03 0.01 0.01 0.02 0.02 0.02 0.02 0.02 0.03 0.04 0.04 0.04 0.04
0.02 0.02 0.03 0.02 0.01 0.01 0.01 0.01 0.00 0.00 0.00 0.00 0.01 0.01 0.00 0.00 0.01 0.03 0.04 0.05 0.03 0.02 0.02 0.03 0.02 0.03 0.04 0.04 0.05 0.03 0.02 0.02 0.01 0.02 0.01 0.02 0.03 0.03 0.03 0.02 0.02 0.03 0.04
0.01 0.01 0.02 0.01 0.01 0.01 0.02 0.01 0.01 0.00 0.00 0.00 0.00 0.00 0.00 0.00 0.00 0.01 0.01 0.02 0.02 0.03 0.03 0.03 0.03 0.04 0.05 0.04 0.02 0.02 0.02 0.02 0.02 0.02 0.01 0.01 0.01 0.02 0.03 0.03 0.02 0.02 0.03
0.01 0.01 0.01 0.00 0.00 0.01 0.01 0.01 0.01 0.00 0.00 0.00 0.00 0.00 0.00 0.00 0.00 0.00 0.00 0.00 0.00 0.01 0.01 0.02 0.03 0.03 0.04 0.03 0.01 0.02 0.01 0.01 0.02 0.03 0.02 0.01 0.01 0.02 0.02 0.03 0.03 0.01 0.01
0.01 0.02 0.02 0.01 0.00 0.01 0.02 0.02 0.01 0.01 0.01 0.01 0.01 0.01 0.01 0.01 0.00 0.00 0.00 0.01 0.00 0.00 0.01 0.01 0.03 0.04 0.03 0.03 0.03 0.03 0.02 0.02 0.02 0.02 0.01 0.01 0.01 0.02 0.03 0.03 0.03 0.01 0.01
0.01 0.02 0.02 0.02 0.01 0.01 0.02 0.02 0.02 0.01 0.01 0.01 0.01 0.01 0.01 0.01 0.01 0.00 0.00 0.01 0.01 0.02 0.03 0.02 0.03 0.04 0.04 0.04 0.05 0.05 0.05 0.03 0.02 0.01 0.01 0.01 0.01 0.02 0.04 0.03 0.02 0.02 0.02
0.01 0.02 0.03 0.03 0.01 0.01 0.01 0.02 0.01 0.01 0.01 0.01 0.01 0.01 0.01 0.01 0.01 0.01 0.01 0.01 0.01 0.02 0.03 0.03 0.03 0.04 0.05 0.05 0.04 0.07 0.06 0.04 0.02 0.01 0.01 0.02 0.02 0.03 0.05 0.03 0.03 0.03 0.03
0.01 0.01 0.04 0.04 0.02 0.01 0.01 0.01 0.01 0.02 0.02 0.01 0.01 0.01 0.01 0.01 0.01 0.01 0.01 0.01 0.02 0.02 0.02 0.02 0.02 0.04 0.06 0.06 0.05 0.04 0.04 0.03 0.03 0.02 0.01 0.01 0.01 0.03 0.06 0.04 0.03 0.02 0.02
0.01 0.01 0.02 0.03 0.02 0.02 0.01 0.01 0.02 0.03 0.03 0.02 0.01 0.01 0.00 0.00 0.00 0.00 0.00 0.01 0.01 0.01 0.01 0.01 0.02 0.03 0.05 0.06 0.06 0.04 0.03 0.04 0.03 0.02 0.02 0.01 0.01 0.01 0.03 0.04 0.03 0.02 0.02
0.01 0.01 0.02 0.04 0.02 0.02 0.01 0.01 0.01 0.02 0.03 0.03 0.02 0.01 0.01 0.01 0.01 0.00 0.00 0.00 0.01 0.01 0.01 0.02 0.02 0.02 0.03 0.03 0.04 0.05 0.05 0.05 0.03 0.03 0.02 0.01 0.01 0.01 0.02 0.02 0.02 0.02 0.01
MSLP
1013.87 1013.34 1012.82 1012.42 1012.20 1012.17 1012.29 1012.49 1012.69 1012.82 1012.85 1012.78 1012.65 1012.50 1012.40 1012.35 1012.38 1012.46 1012.54 1012.59 1012.58 1012.49 1012.33 1012.13 1011.94 1011.78 1011.68 1011.63 1011.63 1011.64 1011.65 1011.64 1011.60 1011.55 1011.52 1011.53 1011.59 1011.71 1011.86 1012.04 1012.21 1012.36 1012.48
1014.29 1013.72 1013.17 1012.76 1012.54 1012.50 1012.61 1012.79 1012.97 1013.08 1013.08 1013.00 1012.85 1012.70 1012.59 1012.54 1012.57 1012.65 1012.74 1012.81 1012.81 1012.74 1012.61 1012.44 1012.27 1012.12 1012.01 1011.95 1011.92 1011.91 1011.90 1011.87 1011.84 1011.80 1011.79 1011.82 1011.90 1012.01 1012.17 1012.33 1012.49 1012.63 1012.74
1014.67 1014.09 1013.53 1013.12 1012.89 1012.84 1012.94 1013.09 1013.25 1013.33 1013.32 1013.22 1013.07 1012.91 1012.79 1012.73 1012.74 1012.80 1012.88 1012.94 1012.95 1012.91 1012.81 1012.67 1012.53 1012.40 1012.30 1012.22 1012.18 1012.14 1012.11 1012.07 1012.05 1012.04 1012.05 1012.11 1012.20 1012.33 1012.48 1012.64 1012.78 1012.92 1013.03
1014.98 1014.41 1013.87 1013.47 1013.24 1013.19 1013.26 1013.39 1013.52 1013.58 1013.55 1013.45 1013.29 1013.13 1012.99 1012.92 1012.90 1012.94 1012.99 1013.03 1013.05 1013.02 1012.95 1012.85 1012.74 1012.64 1012.55 1012.47 1012.41 1012.35 1012.31 1012.28 1012.26 1012.28 1012.33 1012.41 1012.53 1012.67 1012.82 1012.96 1013.10 1013.22 1013.34
1015.18 1014.64 1014.14 1013.77 1013.57 1013.51 1013.57 1013.67 1013.76 1013.80 1013.76 1013.65 1013.49 1013.33 1013.20 1013.11 1013.07 1013.07 1013.09 1013.11 1013.12 1013.11 1013.07 1013.01 1012.94 1012.86 1012.78 1012.71 1012.64 1012.57 1012.53 1012.50 1012.51 1012.55 1012.64 1012.75 1012.89 1013.04 1013.18 1013.32 1013.43 1013.54 1013.65
1015.26 1014.76 1014.32 1014.00 1013.83 1013.78 1013.82 1013.89 1013.95 1013.96 1013.91 1013.80 1013.66 1013.52 1013.39 1013.30 1013.25 1013.23 1013.22 1013.23 1013.23 1013.22 1013.21 1013.18 1013.14 1013.08 1013.02 1012.95 1012.88 1012.82 1012.77 1012.76 1012.79 1012.86 1012.98 1013.13 1013.28 1013.43 1013.56 1013.67 1013.76 1013.84 1013.94
1015.19 1014.75 1014.38 1014.13 1013.99 1013.96 1013.98 1014.03 1014.05 1014.04 1013.98 1013.88 1013.77 1013.66 1013.56 1013.49 1013.45 1013.42 1013.41 1013.40 1013.39 1013.39 1013.39 1013.38 1013.36 1013.33 1013.29 1013.23 1013.16 1013.10 1013.06 1013.06 1013.11 1013.21 1013.35 1013.50 1013.66 1013.80 1013.90 1013.98 1014.04 1014.10 1014.18
1015.02 1014.63 1014.33 1014.14 1014.05 1014.03 1014.04 1014.06 1014.05 1014.02 1013.95 1013.88 1013.81 1013.74 1013.70 1013.67 1013.66 1013.65 1013.63 1013.62 1013.61 1013.61 1013.62 1013.62 1013.62 1013.61 1013.57 1013.52 1013.46 1013.41 1013.38 1013.39 1013.45 1013.56 1013.71 1013.86 1014.00 1014.11 1014.18 1014.22 1014.25 1014.28 1014.34
1014.76 1014.42 1014.19 1014.06 1014.01 1014.00 1014.00 1013.99 1013.96 1013.90 1013.84 1013.80 1013.77 1013.78 1013.80 1013.83 1013.86 1013.88 1013.89 1013.88 1013.87 1013.86 1013.87 1013.88 1013.89 1013.89 1013.88 1013.84 1013.80 1013.75 1013.73 1013.75 1013.81 1013.92 1014.05 1014.18 1014.29 1014.35 1014.38 1014.37 1014.36 1014.36 1014.41
1014.47 1014.17 1013.99 1013.91 1013.90 1013.90 1013.89 1013.85 1013.79 1013.72 1013.67 1013.66 1013.69 1013.76 1013.86 1013.96 1014.05 1014.11 1014.13 1014.14 1014.13 1014.12 1014.13 1014.15 1014.17 1014.19 1014.20 1014.19 1014.16 1014.14 1014.13 1014.14 1014.20 1014.28 1014.37 1014.46 1014.51 1014.52 1014.49 1014.44 1014.38 1014.36 1014.40
1014.19 1013.92 1013.78 1013.75 1013.76 1013.77 1013.74 1013.69 1013.61 1013.53 1013.49 1013.50 1013.58 1013.72 1013.89 1014.06 1014.20 1014.30 1014.35 1014.37 1014.36 1014.36 1014.37 1014.40 1014.45 1014.50 1014.54 1014.57 1014.58 1014.58 1014.58 1014.59 1014.62 1014.66 1014.70 1014.71 1014.70 1014.64 1014.55 1014.45 1014.36 1014.32 1014.35
1013.94 1013.70 1013.61 1013.61 1013.64 1013.65 1013.62 1013.54 1013.45 1013.36 1013.33 1013.38 1013.50 1013.69 1013.91 1014.14 1014.32 1014.46 1014.53 1014.56 1014.57 1014.58 1014.60 1014.66 1014.74 1014.84 1014.93 1015.01 1015.06 1015.09 1015.11 1015.11 1015.11 1015.09 1015.06 1014.99 1014.90 1014.76 1014.61 1014.46 1014.34 1014.28 1014.30
1013.75 1013.55 1013.49 1013.52 1013.57 1013.59 1013.56 1013.47 1013.37 1013.28 1013.25 1013.31 1013.46 1013.69 1013.95 1014.20 1014.42 1014.58 1014.68 1014.72 1014.75 1014.78 1014.84 1014.94 1015.07 1015.23 1015.39 1015.53 1015.63 1015.70 1015.74 1015.73 1015.68 1015.61 1015.49 1015.34 1015.15 1014.94 1014.72 1014.52 1014.37 1014.30 1014.31
1013.62 1013.46 1013.45 1013.51 1013.58 1013.61 1013.58 1013.50 1013.39 1013.31 1013.28 1013.35 1013.51 1013.74 1014.02 1014.29 1014.52 1014.70 1014.81 1014.89 1014.94 1015.01 1015.12 1015.27 1015.47 1015.70 1015.93 1016.14 1016.31 1016.42 1016.47 1016.45 1016.36 1016.22 1016.02 1015.78 1015.50 1015.21 1014.93 1014.69 1014.51 1014.42 1014.43
1013.56 1013.46 1013.49 1013.58 1013.68 1013.72 1013.71 1013.64 1013.54 1013.46 1013.44 1013.50 1013.65 1013.88 1014.14 1014.41 1014.64 1014.83 1014.97 1015.07 1015.17 1015.29 1015.46 1015.69 1015.96 1016.26 1016.58 1016.86 1017.08 1017.23 1017.29 1017.26 1017.14 1016.93 1016.66 1016.33 1015.98 1015.62 1015.28 1015.00 1014.79 1014.68 1014.67
1013.57 1013.53 1013.60 1013.73 1013.85 1013.93 1013.93 1013.88 1013.80 1013.73 1013.71 1013.76 1013.89 1014.09 1014.33 1014.57 1014.80 1015.00 1015.16 1015.31 1015.47 1015.65 1015.90 1016.19 1016.54 1016.92 1017.30 1017.64 1017.91 1018.09 1018.16 1018.12 1017.96 1017.71 1017.38 1016.99 1016.58 1016.17 1015.80 1015.48 1015.25 1015.11 1015.08
1013.65 1013.67 1013.79 1013.94 1014.09 1014.19 1014.23 1014.21 1014.15 1014.10 1014.08 1014.11 1014.21 1014.37 1014.57 1014.79 1015.01 1015.22 1015.41 1015.61 1015.83 1016.10 1016.41 1016.78 1017.19 1017.63 1018.06 1018.43 1018.73 1018.93 1019.01 1018.96 1018.79 1018.52 1018.16 1017.74 1017.30 1016.86 1016.46 1016.13 1015.87 1015.71 1015.64
1013.81 1013.88 1014.03 1014.21 1014.38 1014.51 1014.58 1014.59 1014.57 1014.54 1014.52 1014.53 1014.60 1014.72 1014.87 1015.06 1015.26 1015.48 1015.72 1015.97 1016.26 1016.60 1016.98 1017.41 1017.87 1018.34 1018.79 1019.18 1019.49 1019.70 1019.78 1019.74 1019.58 1019.30 1018.94 1018.53 1018.09 1017.66 1017.26 1016.92 1016.66 1016.48 1016.38
1014.04 1014.14 1014.31 1014.50 1014.69 1014.84 1014.94 1015.00 1015.02 1015.01 1015.00 1015.00 1015.04 1015.11 1015.22 1015.37 1015.56 1015.79 1016.06 1016.37 1016.73 1017.13 1017.56 1018.03 1018.52 1018.99 1019.44 1019.82 1020.13 1020.33 1020.42 1020.40 1020.26 1020.02 1019.70 1019.33 1018.94 1018.54 1018.17 1017.86 1017.60 1017.40 1017.26
1014.33 1014.45 1014.62 1014.80 1014.99 1015.16 1015.30 1015.40 1015.47 1015.50 1015.50 1015.50 1015.50 1015.53 1015.60 1015.72 1015.90 1016.14 1016.43 1016.79 1017.19 1017.64 1018.11 1018.60 1019.08 1019.54 1019.95 1020.31 1020.59 1020.79 1020.90 1020.90 1020.82 1020.65 1020.41 1020.11 1019.80 1019.47 1019.16 1018.88 1018.64 1018.44 1018.28
1014.66 1014.78 1014.91 1015.08 1015.26 1015.44 1015.62 1015.77 1015.89 1015.96 1015.99 1015.99 1015.98 1015.98 1016.01 1016.10 1016.26 1016.49 1016.81 1017.19 1017.63 1018.10 1018.58 1019.06 1019.51 1019.93 1020.30 1020.62 1020.88 1021.07 1021.20 1021.26 1021.24 1021.17 1021.03 1020.85 1020.64 1020.41 1020.18 1019.96 1019.75 1019.56 1019.39
1014.99 1015.08 1015.18 1015.31 1015.47 1015.67 1015.88 1016.08 1016.25 1016.38 1016.45 1016.46 1016.45 1016.43 1016.43 1016.49 1016.63 1016.85 1017.17 1017.57 1018.01 1018.48 1018.95 1019.40 1019.81 1020.17 1020.49 1020.76 1020.99 1021.18 1021.34 1021.46 1021.54 1021.58 1021.57 1021.51 1021.42 1021.31 1021.17 1021.02 1020.86 1020.69 1020.52
1015.27 1015.32 1015.38 1015.47 1015.61 1015.82 1016.06 1016.31 1016.55 1016.74 1016.85 1016.90 1016.89 1016.86 1016.84 1016.88 1016.99 1017.20 1017.51 1017.89 1018.32 1018.77 1019.21 1019.61 1019.97 1020.27 1020.53 1020.76 1020.96 1021.16 1021.36 1021.55 1021.72 1021.87 1021.99 1022.07 1022.11 1022.10 1022.06 1021.99 1021.88 1021.75 1021.59
1015.46 1015.48 1015.49 1015.55 1015.68 1015.89 1016.16 1016.47 1016.77 1017.01 1017.18 1017.27 1017.29 1017.26 1017.23 1017.25 1017.34 1017.53 1017.81 1018.16 1018.57 1018.98 1019.37 1019.72 1020.01 1020.25 1020.46 1020.65 1020.84 1021.05 1021.29 1021.54 1021.81 1022.07 1022.30 1022.50 1022.65 1022.75 1022.79 1022.79 1022.74 1022.64 1022.52
1015.55 1015.54 1015.52 1015.56 1015.68 1015.89 1016.20 1016.55 1016.90 1017.21 1017.44 1017.57 1017.61 1017.60 1017.57 1017.58 1017.65 1017.81 1018.06 1018.38 1018.74 1019.11 1019.45 1019.74 1019.98 1020.17 1020.33 1020.49 1020.68 1020.90 1021.17 1021.48 1021.82 1022.16 1022.49 1022.79 1023.02 1023.20 1023.32 1023.37 1023.37 1023.31 1023.22
1015.54 1015.53 1015.50 1015.52 1015.64 1015.87 1016.19 1016.58 1016.98 1017.33 1017.61 1017.78 1017.85 1017.86 1017.84 1017.85 1017.90 1018.04 1018.26 1018.54 1018.86 1019.18 1019.47 1019.72 1019.91 1020.06 1020.19 1020.33 1020.51 1020.74 1021.03 1021.38 1021.77 1022.18 1022.56 1022.92 1023.22 1023.45 1023.61 1023.71 1023.74 1023.73 1023.67
Thickness
5778 5778 5777 5777 5776 5775 5774 5774 5774 5773 5773 5772 5772 5771 5770 5769 5768 5768 5768 5768 5767 5767 5767 5766 5766 5766 5766 5765 5765 5766 5766 5766 5766 5766 5766 5766 5766 5766 5766 5766 5767 5766 5766
5780 5777 5775 5775 5774 5773 5772 5772 5772 5771 5771 5770 5769 5768 5767 5767 5766 5765 5765 5765 5765 5765 5765 5764 5764 5763 5763 5763 5763 5763 5763 5764 5764 5763 5763 5763 5763 5763 5763 5763 5764 5763 5763
5780 5776 5773 5772 5772 5771 5770 5770 5769 5769 5768 5768 5767 5766 5765 5764 5763 5763 5762 5762 5762 5762 5762 5761 5761 5761 5761 5760 5760 5760 5761 5761 5761 5761 5761 5760 5760 5760 5760 5760 5761 5760 5760
5778 5774 5772 5770 5769 5768 5767 5767 5766 5766 5766 5765 5764 5763 5762 5761 5761 5760 5760 5760 5760 5759 5759 5758 5758 5758 5760 5758 5757 5758 5758 5758 5759 5759 5759 5758 5757 5757 5757 5757 5757 5757 5757
5775 5772 5769 5767 5766 5765 5765 5764 5764 5763 5763 5762 5761 5760 5759 5759 5758 5757 5757 5757 5757 5756 5756 5755 5755 5755 5755 5754 5754 5755 5755 5755 5755 5755 5755 5754 5754 5754 5754 5754 5754 5754 5754
5773 5770 5767 5765 5764 5763 5762 5761 5761 5760 5760 5759 5758 5757 5756 5756 5755 5754 5754 5754 5753 5753 5753 5752 5751 5751 5751 5751 5751 5752 5753 5753 5753 5752 5752 5751 5750 5750 5751 5750 5751 5751 5751
5771 5768 5765 5763 5762 5760 5759 5758 5757 5757 5757 5756 5755 5754 5754 5753 5752 5752 5751 5750 5750 5750 5749 5749 5748 5748 5748 5748 5748 5749 5750 5750 5750 5749 5748 5747 5747 5747 5747 5747 5747 5747 5748
5770 5767 5764 5761 5760 5758 5757 5756 5755 5755 5754 5753 5752 5752 5751 5750 5749 5749 5748 5747 5747 5746 5746 5746 5745 5745 5745 5745 5745 5746 5747 5747 5747 5746 5745 5744 5744 5744 5743 5743 5744 5743 5743
5769 5766 5763 5760 5758 5756 5755 5754 5753 5752 5752 5751 5750 5749 5749 5748 5747 5746 5745 5744 5744 5743 5743 5743 5742 5742 5742 5742 5743 5743 5743 5743 5743 5742 5741 5739 5740 5740 5740 5740 5740 5740 5740
5767 5765 5763 5761 5758 5755 5753 5752 5751 5750 5750 5749 5748 5747 5747 5746 5744 5743 5742 5741 5741 5740 5740 5740 5740 5740 5739 5740 5740 5740 5740 5740 5739 5737 5736 5736 5736 5736 5736 5736 5736 5736 5736
5762 5763 5762 5760 5758 5756 5753 5751 5749 5749 5748 5747 5746 5745 5745 5744 5742 5741 5739 5739 5738 5738 5738 5737 5737 5737 5737 5737 5737 5737 5737 5736 5735 5733 5732 5732 5733 5733 5732 5732 5732 5732 5732
5757 5759 5760 5759 5757 5756 5754 5750 5749 5748 5747 5746 5746 5745 5744 5743 5741 5739 5737 5736 5736 5736 5736 5735 5735 5735 5735 5735 5734 5734 5733 5732 5730 5728 5727 5728 5729 5729 5729 5729 5728 5728 5728
5756 5756 5758 5757 5755 5754 5752 5751 5749 5748 5747 5746 5745 5744 5743 5741 5739 5737 5735 5734 5734 5734 5734 5734 5734 5734 5733 5733 5731 5730 5729 5727 5725 5724 5722 5723 5724 5725 5725 5725 5725 5725 5725
5753 5753 5755 5755 5754 5753 5751 5749 5748 5747 5746 5744 5743 5742 5741 5739 5738 5737 5735 5734 5733 5733 5733 5732 5731 5731 5731 5730 5729 5727 5725 5723 5721 5719 5718 5719 5719 5720 5721 5721 5721 5721 5721
5751 5751 5753 5753 5751 5750 5749 5748 5746 5744 5743 5741 5740 5739 5738 5737 5736 5735 5733 5732 5731 5730 5729 5729 5728 5727 5726 5725 5724 5722 5721 5719 5717 5715 5714 5714 5714 5715 5716 5717 5717 5717 5718
5750 5749 5751 5750 5749 5748 5746 5745 5743 5741 5740 5738 5737 5736 5735 5734 5733 5731 5730 5729 5728 5727 5726 5725 5724 5722 5721 5720 5719 5718 5717 5715 5714 5712 5710 5709 5709 5710 5711 5712 5712 5713 5713
5749 5749 5748 5748 5747 5745 5743 5741 5740 5738 5737 5735 5733 5733 5732 5731 5730 5728 5726 5725 5724 5723 5722 5721 5720 5719 5717 5715 5714 5713 5712 5711 5710 5709 5707 5706 5705 5705 5705 5706 5707 5708 5708
5748 5746 5745 5745 5743 5742 5740 5738 5736 5735 5733 5731 5730 5729 5728 5727 5726 5724 5722 5721 5720 5719 5717 5716 5714 5712 5711 5710 5708 5707 5707 5706 5706 5705 5704 5702 5701 5701 5700 5701 5701 5702 5703
5747 5744 5742 5741 5739 5738 5736 5734 5733 5731 5730 5728 5726 5725 5724 5723 5722 5721 5719 5718 5716 5715 5714 5712 5710 5708 5706 5705 5704 5702 5702 5701 5701 5700 5699 5698 5698 5697 5696 5696 5696 5696 5697
5745 5743 5740 5737 5736 5734 5732 5731 5729 5727 5726 5724 5722 5721 5720 5719 5718 5717 5715 5714 5713 5710 5708 5707 5704 5704 5703 5701 5701 5698 5697 5697 5696 5696 5695 5694 5693 5693 5693 5692 5691 5691 5691
5741 5739 5736 5733 5732 5730 5727 5725 5721 5720 5720 5719 5718 5717 5716 5715 5714 5713 5712 5711 5709 5707 5705 5703 5701 5699 5698 5698 5694 5690 5691 5693 5691 5691 5691 5690 5689 5689 5689 5688 5687 5686 5685
5737 5736 5734 5731 5729 5727 5725 5723 5721 5719 5717 5716 5715 5713 5713 5712 5711 5711 5709 5707 5706 5704 5701 5700 5698 5694 5694 5695 5691 5686 5681 5681 5685 5686 5686 5685 5685 5685 5685 5684 5683 5682 5680
5733 5732 5731 5729 5727 5725 5724 5721 5719 5716 5713 5711 5710 5709 5709 5709 5708 5707 5706 5706 5704 5702 5699 5698 5696 5693 5690 5691 5692 5687 5679 5674 5676 5679 5680 5681 5681 5680 5680 5679 5678 5677 5676
5731 5730 5729 5727 5726 5723 5722 5718 5714 5709 5706 5707 5707 5706 5706 5705 5705 5704 5703 5703 5702 5700 5698 5697 5695 5693 5690 5687 5688 5689 5688 5683 5676 5670 5673 5676 5676 5675 5675 5674 5673 5672 5670
5730 5728 5727 5725 5723 5721 5720 5716 5713 5710 5708 5707 5705 5703 5703 5702 5702 5701 5701 5700 5699 5698 5697 5695 5693 5691 5689 5687 5685 5685 5684 5683 5682 5674 5667 5668 5669 5670 5670 5669 5668 5667 5665
5728 5726 5724 5721 5720 5719 5717 5715 5712 5709 5706 5703 5701 5699 5699 5698 5699 5698 5698 5697 5697 5696 5695 5693 5691 5689 5688 5686 5685 5684 5681 5678 5676 5674 5669 5666 5663 5664 5666 5665 5664 5663 5661